This demonstration page uses our WeatherBlox Daily Observations layout. Learn more.

Left ArrowRight Arrow

39.08367, -84.50855

Hourly Observations for May 2, 2016

Temp ( °F °C ) Dew Point ( °F °C ) Humidity (%) Winds ( mph kmh ) Pressure ( in mb ) Visibility ( mi km ) Precip ( " mm )
12:27 am 00:27 Mostly Cloudy with Nearby Thunderstorms 61 16.1 60 15.6 97 97 VRB 3 6 29.88 1012 9 14 0.01 0.25
12:37 am 00:37 Mostly Cloudy with Thunderstorms 61 16.1 60 15.6 97 97 SW 5 7 29.88 1012 3 5 0.06 1.52
12:41 am 00:41 Mostly Cloudy with Strong Thunderstorms 61 16.1 61 16.1 100 100 WNW 7 11 29.88 1012 2 3 0.10 2.54
12:47 am 00:47 Cloudy with Thunderstorms 61 16 61 16 100 100 SE 3 6 29.88 1012 3 5 0.11 2.79
12:53 am 00:53 Cloudy with Nearby Thunderstorms 61 16.1 61 16.1 100 100 SSE 9 15 29.87 1011 10 16 0.11 2.79
1:14 am 01:14 Cloudy 61 16 61 16 100 100 S 5 7 29.88 1012 10 16 0.00 0.00
1:53 am 01:53 Mostly Cloudy with Nearby Thunderstorms 62 16.7 61 16.1 96 96 Calm 29.87 1012 10 16 0.00 0.03
2:41 am 02:41 Mostly Cloudy 61 16.1 61 16.1 100 100 S 3 6 29.88 1012 10 16 0.00 0.00
2:53 am 02:53 Mostly Cloudy 61 16.1 61 16.1 100 100 S 3 6 29.88 1012 10 16 0.00 0.00
3:01 am 03:01 Partly Cloudy 61 16.1 61 16.1 100 100 VRB 3 6 29.91 1013 10 16 0.00 0.00
3:53 am 03:53 Clear 59 15 59 15 100 100 WSW 5 7 29.88 1012 8 13 0.00 0.00
4:53 am 04:53 Clear 58 14.4 58 14.4 100 100 WSW 6 9 29.90 1012 10 16 0.00 0.00
5:49 am 05:49 Mostly Cloudy 61 16 59 15 94 94 W 6 9 29.91 1013 10 16 0.00 0.00
5:53 am 05:53 Mostly Cloudy 60 15.6 59 15 96 96 NW 8 13 29.91 1013 10 16 0.00 0.00
6:53 am 06:53 Cloudy 58 14.4 58 14.4 100 100 SW 6 9 29.93 1014 10 16 0.00 0.00
7:53 am 07:53 Cloudy 60 15.6 59 15 96 96 WSW 10 17 29.95 1014 8 13 0.00 0.00
8:53 am 08:53 Cloudy 61 16.1 58 14.4 90 90 WSW 8 13 29.97 1015 10 16 0.00 0.00
9:53 am 09:53 Partly Cloudy 63 17.2 57 13.9 81 81 WSW 9 15 29.98 1015 10 16 0.00 0.00
11:53 am 11:53 Mostly Cloudy 65 18.3 56 13.3 73 73 SW 8 13 29.96 1015 10 16 0.00 0.00
12:53 pm 12:53 Partly Cloudy 65 18.3 55 12.8 70 70 SSW 6 9 29.95 1014 10 16 0.00 0.00
1:53 pm 13:53 Partly Cloudy 65 18.3 54 12.2 68 68 WSW 12 19 29.95 1014 10 16 0.00 0.00
2:53 pm 14:53 Mostly Cloudy 66 18.9 55 12.8 68 68 W 8 13 29.96 1014 10 16 0.00 0.00
3:53 pm 15:53 Mostly Sunny 65 18.3 54 12.2 68 68 WSW 8 13 29.93 1013 10 16 0.00 0.00
4:53 pm 16:53 Sunny 64 17.8 52 11.1 65 65 WSW 9 15 29.91 1013 10 16 0.00 0.00
5:53 pm 17:53 Mostly Cloudy 64 17.8 53 11.7 68 68 WSW 6 9 29.91 1013 10 16 0.00 0.00
6:53 pm 18:53 Mostly Cloudy 64 17.8 53 11.7 68 68 NW 6 9 29.91 1013 10 16 0.00 0.00
7:53 pm 19:53 Mostly Cloudy 62 16.7 54 12.2 75 75 N 8 13 29.91 1013 10 16 0.00 0.00
8:53 pm 20:53 Cloudy 61 16.1 54 12.2 78 78 N 6 9 29.92 1013 10 16 0.00 0.00
9:51 pm 21:51 Cloudy 61 16 54 12 77 77 N 6 9 29.91 1013 10 16 0.00 0.00
9:53 pm 21:53 Cloudy 59 15 54 12.2 83 83 N 8 13 29.93 1014 10 16 0.00 0.00
10:07 pm 22:07 Cloudy 59 15 54 12.2 83 83 NNE 7 11 29.91 1013 10 16 0.00 0.00
10:53 pm 22:53 Cloudy 59 15 53 11.7 81 81 N 5 7 29.94 1014 10 16 0.00 0.00
11:53 pm 23:53 Cloudy 58 14.4 53 11.7 84 84 NNE 7 11 29.94 1014 10 16 0.00 0.00

Powered by AerisWeather